Regional Weather Roundup
Issued by NWS

Home | Current Version | Previous Version | Text Only | Print | Product List | Glossary On
Versions: 1 2 3 4 5 6 7 8 9 10 11 12 13 14 15 16 17 18 19 20 21 22 23 24 25 26 27 28 29 30 31 32 33 34 35 36 37 38 39 40 41 42 43 44 45 46 47 48 49 50
000
ASUS43 KDMX 231407
RWRIA

WEATHER ROUNDUP FOR IOWA
NATIONAL WEATHER SERVICE DES MOINES IA
900 AM CDT SAT AUG 23 2014

NOTE: "FAIR" INDICATES FEW OR NO CLOUDS BELOW 12,000 FEET WITH NO
SIGNIFICANT WEATHER AND/OR OBSTRUCTIONS TO VISIBILITY.

* - THESE STATIONS ARE NOT NWS STATIONS...THUS NOT UNDER NWS
QUALITY CONTROL.  THEY ALSO DO NOT REPORT WEATHER SUCH
AS PRECIPITATION OR FOG.

IAZ001>003-012>014-020>022-031>034-043>046-231500-
   NORTHWEST IOWA

CITY           SKY/WX    TMP DP  RH WIND       PRES   REMARKS
CARROLL *      CLOUDY    70  70 100 E8        29.93S
CHEROKEE *     CLOUDY    70  70 100 E5        29.91S
DENISON *      MOSUNNY   70  70 100 E9        29.89F
LE MARS *      MOSUNNY   72  68  88 SE6       29.91R
ORANGE CITY *  CLOUDY    72  68  88 E8        29.91R
SHELDON *      PTSUNNY   72  70  94 E12G17    29.90R
SIOUX CITY     CLOUDY    72  68  87 E6        29.90R
SPENCER        CLOUDY    70  68  93 E13       29.92R
STORM LAKE *   MOSUNNY   70  70 100 NE7       29.93S
$$

IAZ055>058-069>071-079>083-090>094-231500-
   SOUTHWEST IOWA

CITY           SKY/WX    TMP DP  RH WIND       PRES   REMARKS
ATLANTIC *     MOSUNNY   72  70  94 E13       29.87F
AUDUBON *      RAIN      73  72  94 SE14      29.91F
CLARINDA *     MOSUNNY   73  72  94 SE5       29.91F
COUNCIL BLFS * SUNNY     72  72 100 SE10G16   29.88R
CRESTON *      PTSUNNY   70  70 100 SE9       29.93F
HARLAN  *      PTSUNNY   72  72 100 VRB7G17   29.91F
LAMONI         CLOUDY    71  70  96 SE5       29.93F
RED OAK *      CLOUDY    73  72  94 E7        29.89S
SHENANDOAH *   SUNNY     73  72  94 E6G13     29.90S
$$

IAZ047>049-059>061-072>074-084-231500-
   CENTRAL IOWA

CITY           SKY/WX    TMP DP  RH WIND       PRES   REMARKS
AMES           LGT RAIN  71  71 100 E3        29.92S
ANKENY *       CLOUDY    72  72 100 SE3       29.91F
CHARITON *     CLOUDY    72  70  94 S9        29.95R
DES MOINES     LGT RAIN  73  70  90 SE7       29.91F
GRINNELL*      LGT RAIN  70  68  94 NE7       29.93F
KNOXVILLE *    CLOUDY    72  70  94 SE6       29.90F
MARSHALLTOWN   RAIN      71  70  96 E14       29.93F FOG
PELLA *        LGT RAIN  72  70  94 E6        29.93F
PERRY *        DRIZZLE   72  70  94 SE3       29.93F
$$

IAZ004>006-015-016-023>025-035-036-231500-
   NORTH CENTRAL IOWA

CITY           SKY/WX    TMP DP  RH WIND       PRES   REMARKS
ALGONA *       MOSUNNY   70  70 100 NE9G17    29.95R
CLARION *      RAIN      72  72 100 E16G23    29.90F
ESTHERVILLE    CLOUDY    69  68  96 E9        29.94S
FORT DODGE *   CLOUDY    70  70 100 E13       29.96R
MASON CITY     RAIN      69  69 100 E8        30.00F FOG
FOREST CITY *  RAIN      70  70 100 NE8       29.98F
IOWA FALLS *   RAIN      70  70 100 N9        29.96F
$$

IAZ007>011-017>019-026>030-037>042-050>054-066-231500-
   NORTHEAST IOWA

CITY           SKY/WX    TMP DP  RH WIND       PRES   REMARKS
CEDAR RAPIDS   TSTM      71  71 100 SW14G21   29.99R FOG
CHARLES CITY * HVY RAIN  72  70  94 W13G25    30.04R
CLINTON *      CLOUDY    75  73  94 E3        29.99R
DECORAH *      CLOUDY    72  72 100 CALM      29.98F FOG
DUBUQUE        CLOUDY    74  74 100 CALM      29.98S FOG
MONTICELLO *   CLOUDY    75  75 100 CALM      29.96S FOG
OELWEIN *      LGT RAIN  73  73 100 SW8       29.99R
WATERLOO       LGT RAIN  73  71  93 W10       29.97S
$$

IAZ064-065-067-068-078-231500-
   EAST CENTRAL IOWA

CITY           SKY/WX    TMP DP  RH WIND       PRES   REMARKS
DAVENPORT      CLOUDY    76  74  93 E5        29.96S THUNDER FOG
IOWA CITY      TSTM      71  71 100 W12G23    30.01S FOG
MT. PLEASANT * RAIN     N/A N/A N/A NW8G20    30.00R
MUSCATINE *    LGT RAIN  73  72  94 W23G33    29.96R VSB 1
QUAD CITIES    CLOUDY    77  74  90 NE3       29.95S
$$

IAZ062-063-075>077-085>089-095>099-231500-
   SOUTHEAST IOWA

CITY           SKY/WX    TMP DP  RH WIND       PRES   REMARKS
BURLINGTON     TSTM      73  73 100 NW10G29   30.00R FOG
FAIRFIELD *    CLOUDY    70  68  94 SW5       29.96F
FORT MADISON * HVY RAIN  73  72  94 W8        30.00R
KEOKUK *       CLOUDY    77  72  83 NW14G21   29.98R
OSKALOOSA *    LGT RAIN  70  70 100 E7        29.96F
CENTERVILLE *  SUNNY     70  70 100 E3        29.98F
OTTUMWA        LGT RAIN  70  68  93 S8        29.95F
WASHINGTON *   LGT RAIN  72  72 100 NW7       29.96F
$$

ABBREVIATIONS USED IN REMARKS
   TC - TEMPERATURES IN CELSIUS
  WCI - WIND CHILL INDEX
   HX - HEAT INDEX
  VSB - VISIBILITY
$$




USA.gov is the U.S. government's official web portal to all federal, state and local government web resources and services.